Location: Newark
(43.4100°N, 74.9600°W)
Time: 09:09:07
(UTC+00:00)

ISS - Pass Details

Date: 21 September 2019
Orbit: 411 x 421 km, 51.6° (Epoch: 20 October)

Event Time Altitude Azimuth Distance (km) Brightness Sun altitude
Rises 23:54:19 0° 218° (SW) 2,330 0.4 -10.4°
Reaches altitude 10° 23:56:27 10° 211° (SSW) 1,472 -0.7 -10.8°
Maximum altitude 23:59:34 40° 140° (SE) 622 -3.3 -11.3°
Enters shadow 00:01:45 17° 77° (ENE) 1,120 -2.1 -11.7°
